DELTA 1 DEB, 18429

Orbit data source: Space-Track

DELTA 1 DEB, 18429 is space debris in SSO originally from a launch on Thu, 29 Jul 1976 UTC launched from the Air Force Western Test Range (AFWTR). Debris objects in space refer to the collection of defunct objects orbiting the Earth. Examples of debris include non-operational satellites, rocket bodies, and fragments generated from explosions, collisions, or faulty payload assembly.

Loading next visibility...
Identifier
18429, 1976-077EZ
Orbit
SSO
Country
Flag of USUS
Related business
Manufacturer
Unknown
Mission
Spacecraft
Bus & Motor
Unknown
Mass
Unknown
Launch date (UTC)
1976-07-29 (50 years ago)
Launch vehicle
Unknown
Launch site
Air Force Western Test Range (AFWTR)
Object type
Payload
Rocket body
Debris
Shape & HBR
Unknown shape, 0.1 m
Radar Cross Section
Medium (>0.1 m² and <1 m²)

Expand to show TLE details & history
Last TLE update: 3 weeks ago

TLE from 3 weeks ago
0 DELTA 1 DEB
1 18429U 76077EZ  26151.11788491  .00000075  00000-0  12557-2 0  9999
2 18429 102.4764 201.6853 0228231 226.6457 156.7203 12.06409187613625
Epoch: 2026-05-31T02:49Z
TLE epoch observation values (Epoch: 2026-05-31T02:49:45.256Z)
Latitude
23.78342°
Longitude
-94.94698°
Altitude
1,823.804 km
Speed
6.901 km/s
True Right ascension
13h 04m 27s
True Declination
23° 40' 24"
Sunlit
Object was in daylight at epoch
Visualization orbit readout
Latitude
Unknown
Longitude
Unknown
Altitude
Unknown
Speed
Unknown
Apparent Right ascension
Unknown
Apparent Declination
Unknown
Sunlit
N/A
Visualization observer readout
Local Sidereal Time
07:36:51
Azimuth
Unknown
Elevation
Unknown
Doppler factor
Unknown
Orbital elements
Apogee altitude
1,833.163 km
Perigee altitude
1,466.712 km
Semi-major axis
8,028.074 km
Eccentricity
0.02282
Inclination
102.4764°
RAAN
201.6853°
Arg. of periapsis
226.6457°
True anomaly
157.72746°
Mean anomaly
156.7203°
Eccentric anomaly
157.22648°
Mean motion
3.01735 °/min
Orbital period
119.31 mins
BSTAR
0.0012557
Loading maneuver chart data...
Computing Atmospheric mass density...
Loading historical data...
Loading historical data...
Loading historical data...
Loading historical data...
Loading historical data...
Loading historical data...
Loading historical data...

Documentation

Showing up to 5 results
|